TimeCDT,TemperatureF,Dew PointF,Humidity,Sea Level PressureIn,VisibilityMPH,Wind Direction,Wind SpeedMPH,Gust SpeedMPH,PrecipitationIn,Events,Conditions,WindDirDegrees,DateUTC
12:15 AM,42.8,39.2,87,29.75,10.0,NNW,3.5,-,N/A,,Overcast,330,2012-10-20 05:15:00
12:35 AM,42.8,39.2,87,29.75,10.0,NW,3.5,-,N/A,,Overcast,320,2012-10-20 05:35:00
12:55 AM,42.8,39.2,87,29.75,10.0,NW,4.6,-,N/A,,Overcast,310,2012-10-20 05:55:00
1:15 AM,42.8,39.2,87,29.76,10.0,NNW,6.9,-,N/A,,Overcast,330,2012-10-20 06:15:00
1:35 AM,42.8,39.2,87,29.76,10.0,NNW,4.6,-,N/A,,Overcast,330,2012-10-20 06:35:00
1:55 AM,42.8,39.2,87,29.76,10.0,Calm,Calm,-,N/A,,Overcast,0,2012-10-20 06:55:00
2:15 AM,42.8,39.2,87,29.76,10.0,North,3.5,-,N/A,,Overcast,350,2012-10-20 07:15:00
2:35 AM,42.8,39.2,87,29.76,10.0,Calm,Calm,-,N/A,,Overcast,0,2012-10-20 07:35:00
2:55 AM,42.8,39.2,87,29.76,10.0,Calm,Calm,-,N/A,,Overcast,0,2012-10-20 07:55:00
3:15 AM,42.8,39.2,87,29.77,10.0,Calm,Calm,-,N/A,,Overcast,0,2012-10-20 08:15:00
3:35 AM,42.8,39.2,87,29.76,5.0,Calm,Calm,-,N/A,,Overcast,0,2012-10-20 08:35:00
3:55 AM,42.8,39.2,87,29.76,2.0,Calm,Calm,-,N/A,,Overcast,0,2012-10-20 08:55:00
4:15 AM,42.8,39.2,87,29.76,1.2,Calm,Calm,-,N/A,,Overcast,0,2012-10-20 09:15:00
4:35 AM,42.8,39.2,87,29.77,1.5,Calm,Calm,-,N/A,,Overcast,0,2012-10-20 09:35:00
4:55 AM,42.8,39.2,87,29.78,1.2,West,4.6,-,N/A,,Overcast,280,2012-10-20 09:55:00
5:15 AM,42.8,39.2,87,29.77,1.2,Calm,Calm,-,N/A,,Overcast,0,2012-10-20 10:15:00
5:35 AM,41.0,39.2,93,29.77,2.5,Calm,Calm,-,N/A,,Overcast,0,2012-10-20 10:35:00
5:55 AM,41.0,39.2,93,29.77,2.5,Calm,Calm,-,N/A,,Overcast,0,2012-10-20 10:55:00
6:15 AM,41.0,39.2,93,29.78,2.0,Calm,Calm,-,N/A,,Overcast,0,2012-10-20 11:15:00
6:35 AM,41.0,39.2,93,29.78,1.8,Calm,Calm,-,N/A,,Overcast,0,2012-10-20 11:35:00
6:55 AM,41.0,39.2,93,29.79,5.0,SW,3.5,-,N/A,,Overcast,220,2012-10-20 11:55:00
7:15 AM,41.0,39.2,93,29.79,10.0,SSW,3.5,-,N/A,,Overcast,200,2012-10-20 12:15:00
7:35 AM,41.0,39.2,93,29.79,2.5,SSW,3.5,-,N/A,,Overcast,210,2012-10-20 12:35:00
7:55 AM,41.0,39.2,93,29.80,10.0,South,4.6,-,N/A,,Overcast,190,2012-10-20 12:55:00
8:15 AM,41.0,37.4,87,29.80,10.0,South,5.8,-,N/A,,Overcast,190,2012-10-20 13:15:00
8:35 AM,41.0,37.4,87,29.80,10.0,SSW,5.8,-,N/A,,Overcast,210,2012-10-20 13:35:00
8:55 AM,41.0,37.4,87,29.80,9.0,SSW,6.9,-,N/A,,Overcast,200,2012-10-20 13:55:00
9:15 AM,42.8,39.2,87,29.80,9.0,South,9.2,-,N/A,,Overcast,180,2012-10-20 14:15:00
9:35 AM,42.8,39.2,87,29.81,10.0,SSW,6.9,-,N/A,,Overcast,210,2012-10-20 14:35:00
9:55 AM,42.8,39.2,87,29.81,10.0,SW,5.8,-,N/A,,Overcast,220,2012-10-20 14:55:00
10:15 AM,44.6,39.2,81,29.82,10.0,SW,6.9,-,N/A,,Overcast,220,2012-10-20 15:15:00
10:35 AM,44.6,39.2,81,29.82,10.0,SSW,5.8,-,N/A,,Overcast,200,2012-10-20 15:35:00
10:55 AM,44.6,39.2,81,29.83,10.0,SW,5.8,-,N/A,,Overcast,220,2012-10-20 15:55:00
11:15 AM,46.4,39.2,76,29.83,10.0,SW,5.8,-,N/A,,Overcast,230,2012-10-20 16:15:00
11:35 AM,46.4,39.2,76,29.82,10.0,South,6.9,-,N/A,,Overcast,180,2012-10-20 16:35:00
11:55 AM,46.4,39.2,76,29.81,10.0,SSW,6.9,-,N/A,,Overcast,200,2012-10-20 16:55:00
12:15 PM,46.4,39.2,76,29.81,10.0,SSW,6.9,-,N/A,,Overcast,210,2012-10-20 17:15:00
12:35 PM,48.2,39.2,71,29.80,10.0,South,8.1,-,N/A,,Overcast,170,2012-10-20 17:35:00
12:55 PM,48.2,39.2,71,29.80,10.0,South,6.9,-,N/A,,Overcast,190,2012-10-20 17:55:00
1:15 PM,48.2,39.2,71,29.80,10.0,South,5.8,-,N/A,,Overcast,180,2012-10-20 18:15:00
1:35 PM,48.2,39.2,71,29.79,10.0,South,9.2,-,N/A,,Overcast,170,2012-10-20 18:35:00
1:55 PM,50.0,41.0,71,29.77,10.0,SSE,10.4,-,N/A,,Overcast,150,2012-10-20 18:55:00
2:15 PM,51.8,41.0,67,29.77,10.0,South,10.4,-,N/A,,Overcast,170,2012-10-20 19:15:00
2:35 PM,51.8,41.0,67,29.77,10.0,South,9.2,-,N/A,,Overcast,180,2012-10-20 19:35:00
2:55 PM,51.8,42.8,71,29.77,10.0,South,11.5,-,N/A,,Overcast,190,2012-10-20 19:55:00
3:15 PM,51.8,42.8,71,29.76,10.0,South,12.7,-,N/A,,Overcast,180,2012-10-20 20:15:00
3:35 PM,51.8,42.8,71,29.76,10.0,South,12.7,-,N/A,,Overcast,190,2012-10-20 20:35:00
3:55 PM,51.8,41.0,67,29.75,10.0,South,12.7,-,N/A,,Mostly Cloudy,170,2012-10-20 20:55:00
4:15 PM,53.6,42.8,67,29.75,10.0,SSE,11.5,-,N/A,,Partly Cloudy,160,2012-10-20 21:15:00
4:35 PM,53.6,42.8,67,29.75,10.0,SSE,13.8,-,N/A,,Scattered Clouds,160,2012-10-20 21:35:00
4:55 PM,53.6,42.8,67,29.76,10.0,SSE,11.5,-,N/A,,Partly Cloudy,160,2012-10-20 21:55:00
5:15 PM,53.6,42.8,67,29.76,10.0,SSE,11.5,-,N/A,,Clear,150,2012-10-20 22:15:00
5:35 PM,51.8,42.8,71,29.75,10.0,SE,12.7,-,N/A,,Clear,130,2012-10-20 22:35:00
5:55 PM,51.8,41.0,67,29.76,10.0,SE,11.5,-,N/A,,Clear,140,2012-10-20 22:55:00
6:15 PM,50.0,42.8,76,29.77,10.0,SE,9.2,-,N/A,,Clear,140,2012-10-20 23:15:00
6:35 PM,48.2,41.0,76,29.77,10.0,SSE,9.2,-,N/A,,Clear,150,2012-10-20 23:35:00
6:55 PM,48.2,42.8,82,29.77,10.0,SSE,9.2,-,N/A,,Clear,150,2012-10-20 23:55:00
7:15 PM,48.2,42.8,82,29.77,10.0,SE,11.5,-,N/A,,Clear,140,2012-10-21 00:15:00
7:35 PM,48.2,42.8,82,29.77,10.0,SSE,11.5,-,N/A,,Clear,150,2012-10-21 00:35:00
7:55 PM,48.2,41.0,76,29.78,10.0,SSE,11.5,-,N/A,,Clear,160,2012-10-21 00:55:00
8:15 PM,46.4,41.0,81,29.78,10.0,SSE,12.7,-,N/A,,Clear,150,2012-10-21 01:15:00
8:35 PM,46.4,41.0,81,29.79,10.0,SSE,13.8,-,N/A,,Clear,150,2012-10-21 01:35:00
8:55 PM,46.4,41.0,81,29.78,10.0,SSE,13.8,20.7,N/A,,Clear,150,2012-10-21 01:55:00
9:15 PM,44.6,41.0,87,29.78,10.0,SE,13.8,18.4,N/A,,Clear,140,2012-10-21 02:15:00
9:35 PM,44.6,41.0,87,29.78,9.0,SSE,16.1,-,N/A,,Clear,150,2012-10-21 02:35:00
9:55 PM,44.6,41.0,87,29.79,10.0,SSE,12.7,-,N/A,,Clear,160,2012-10-21 02:55:00
10:15 PM,44.6,41.0,87,29.79,9.0,SSE,10.4,-,N/A,,Clear,160,2012-10-21 03:15:00
10:35 PM,46.4,41.0,81,29.79,10.0,SSE,12.7,-,N/A,,Clear,160,2012-10-21 03:35:00
10:55 PM,46.4,41.0,81,29.79,10.0,SSE,11.5,-,N/A,,Clear,160,2012-10-21 03:55:00
11:15 PM,44.6,41.0,87,29.79,10.0,SSE,15.0,-,N/A,,Clear,160,2012-10-21 04:15:00
11:35 PM,44.6,39.2,81,29.78,10.0,SSE,13.8,-,N/A,,Clear,160,2012-10-21 04:35:00
11:55 PM,44.6,39.2,81,29.79,10.0,SSE,12.7,-,N/A,,Clear,160,2012-10-21 04:55:00